Showing default

R5-S2, 60207

Orbit data source: Space-Track

R5-S2, 60207 is a payload satellite owned by NASA JSC (US) in SSO that was launched on Thu, 04 Jul 2024 UTC via an FIREFLY ALPHA launch vehicle from the Air Force Western Test Range (AFWTR). Payload-class satellites include a variety of spacecraft equipped with specific instruments for various scientific and technological missions. These include communications satellites like Starlink; space stations such as the ISS; scientific satellites like the Hubble; Earth observation satellites from companies like Planet Labs, Umbra, and HawkEye 360; GPS; miniature CubeSats for education and research; and military/defense satellites.

Loading next visibility...
Identifier
60207, 2024-125E
Orbit
SSO
Country
Flag of USUS
Related business
Manufacturer
NASA JSC
Mission
Operational Civil Technology
Bus & Motor
CUBESAT 6U, Unknown motor
Mass
10 kg wet, ~10 kg dry
Launch date (UTC)
2024-07-04 (1 year ago)
Launch vehicle
FIREFLY ALPHA
Launch site
Air Force Western Test Range (AFWTR)
Object type
Payload
Rocket body
Debris
Shape & HBR
Box, 0.1 m
Radar Cross Section
0.035 m², Small (<0.1 m²)

Expand to show TLE details & history
Last TLE update: 11 hours ago

TLE from 11 hours ago
0 R5-S2
1 60207U 24125E   25299.56843652  .00017237  00000-0  48930-3 0  9992
2 60207  97.2610 148.3885 0019515   1.1023 359.0260 15.36074340 73218
Epoch: 2025-10-26T13:38Z
TLE epoch observation values (Epoch: 2025-10-26T13:38:32.915Z)
Latitude
-0.00009°
Longitude
-91.4314°
Altitude
447.506 km
Speed
7.651 km/s
True Right ascension
09h 53m 33s
True Declination
0° 00' 00"
Sunlit
Object was in daylight at epoch
Visualization orbit readout
Latitude
Unknown
Longitude
Unknown
Altitude
Unknown
Speed
Unknown
Apparent Right ascension
Unknown
Apparent Declination
Unknown
Sunlit
N/A
Visualization observer readout
Local Sidereal Time
20:24:52
Azimuth
Unknown
Elevation
Unknown
Doppler factor
Unknown
Orbital elements
Apogee altitude
468.004 km
Perigee altitude
441.335 km
Semi-major axis
6,832.806 km
Eccentricity
0.00195
Inclination
97.261°
RAAN
148.3885°
Arg. of periapsis
1.1023°
True anomaly
359.02219°
Mean anomaly
359.026°
Eccentric anomaly
359.0241°
Mean motion
3.84277 °/min
Orbital period
93.68 mins
BSTAR
0.0004893
Loading maneuver chart data...
Computing Atmospheric mass density...
Loading historical data...
Loading historical data...
Loading historical data...
Loading historical data...
Loading historical data...
Loading historical data...
Loading historical data...

Documentation

Showing up to 5 results
|